Flag for Malaysia Weather past 2 weeks in Johor Bahru, Malaysia

Now
86 °F

Partly sunny.


Feels Like: 95 °F
Forecast: 79 / 89 °F
Wind: 8 mph from South

Location: Singapore / Paya Lebar

Current Time: Aug 5, 2015 at 11:06:09 AM

Latest Report: Aug 5, 2015 at 10:00 AM


Visibility: N/A

Pressure: 29.86 "Hg

Humidity: 70%

Dew point: 75 °F

Location of Johor BahruLocation

Historic Weather in Johor Bahru — Graph

°F

Johor Bahru temperature yesterday

Maximum temperature yesterday: 86 °F (at 2:00 PM)
Minimum temperature yesterday: 75 °F (at 8:00 AM)
Average temperature yesterday: 82 °F

Past Weeks' High & Low Weather Summary

 TemperatureHumidityPressure
High93 °F (Jul 22, 3:00 PM)94% (Jul 25, 7:00 AM)29.95 "Hg (Jul 25, 7:00 AM)
Low73 °F (Aug 3, 8:00 AM)52% (Jul 22, 1:00 PM)29.77 "Hg (Jul 25, 5:00 PM)
Average85 °F73%29.86 "Hg
* Reported Jul 21 10:00 AM — Aug 5 10:00 AM, Johor Bahru, Weather by CustomWeather, © 2015

Note: Actual official high and low records may vary slightly from our data, if they occured in-between our weather recording intervals... More about our weather records

Advertising

Johor Bahru weather history for previous 24 hours

 ConditionsComfort  
Time TempWeatherWind HumidityBarometerVisibility
10:00 AM
Wed, Aug 5
86 °FPartly sunny.8 mph70%29.86 "HgN/A
9:00 AM84 °FPartly sunny.7 mph74%29.83 "HgN/A
8:00 AM82 °FPartly sunny.5 mph84%29.83 "HgN/A
7:00 AM81 °FPassing clouds.1 mph89%29.83 "HgN/A
6:00 AM81 °FPassing clouds.3 mph89%29.83 "HgN/A
5:00 AM81 °FPassing clouds.3 mph89%29.83 "HgN/A
11:00 PM
Tue, Aug 4
82 °FPassing clouds.3 mph79%29.89 "HgN/A
10:00 PM82 °FPassing clouds.5 mph74%29.86 "HgN/A
9:00 PM84 °FPassing clouds.6 mph74%29.83 "HgN/A
8:00 PM84 °FPartly cloudy.5 mph70%29.83 "HgN/A
7:00 PM84 °FBroken clouds.6 mph70%29.83 "HgN/A
6:00 PM86 °FPartly sunny.8 mph66%29.80 "HgN/A
5:00 PM86 °FPartly sunny.9 mph70%29.80 "HgN/A
4:00 PM86 °FPartly sunny.9 mph70%29.80 "HgN/A
3:00 PM86 °FPartly sunny.9 mph66%29.83 "HgN/A
2:00 PM86 °FPartly sunny.10 mph62%29.83 "HgN/A
1:00 PM84 °FPartly sunny.6 mph70%29.86 "HgN/A
12:00 PM82 °FPartly sunny.5 mph74%29.86 "HgN/A
11:00 AM79 °FScattered clouds.2 mph89%29.89 "HgN/A
Weather by CustomWeather, © 2015

See weather overviewHow to use our weather pages